Flag for Costa Rica Weather past 2 weeks in Liberia, Costa Rica

Now
73 °F

Passing clouds.


Feels Like: 75 °F
Forecast: 79 / 92 °F
Wind: 14 mph from East

Location: Juan Santamaria

Current Time: Jul 4, 2015 at 12:03:28 AM

Latest Report: Jul 3, 2015 at 11:00 PM


Visibility: N/A

Pressure: 29.94 "Hg

Humidity: 74%

Dew point: 64 °F

Location of LiberiaLocation

Historic Weather in Liberia — Graph

°F

Liberia temperature yesterday

Maximum temperature yesterday: 84 °F (at 11:00 AM)
Minimum temperature yesterday: 73 °F (at 12:00 AM)
Average temperature yesterday: 77 °F

Past Weeks' High & Low Weather Summary

 TemperatureHumidityPressure
High88 °F (Jun 24, 12:00 PM)94% (Jun 21, 6:00 AM)30.08 "Hg (Jun 21, 6:00 AM)
Low68 °F (Jun 21, 5:00 AM)43% (Jun 24, 12:00 PM)29.88 "Hg (Jul 3, 3:00 AM)
Average76 °F67%29.97 "Hg
* Reported Jun 18 11:00 PM — Jul 3 11:00 PM, Liberia, Weather by CustomWeather, © 2015

Note: Actual official high and low records may vary slightly from our data, if they occured in-between our weather recording intervals... More about our weather records

Advertising

Liberia weather history for previous 24 hours

 ConditionsComfort  
Time TempWeatherWind HumidityBarometerVisibility
11:00 PM
Fri, Jul 3
73 °FPassing clouds.14 mph74%29.94 "HgN/A
9:00 PM73 °FPassing clouds.16 mph69%29.93 "HgN/A
8:00 PM73 °FPassing clouds.13 mph69%29.91 "HgN/A
7:00 PM73 °FPassing clouds.6 mph69%29.92 "HgN/A
6:00 PM75 °FScattered clouds.12 mph65%29.90 "HgN/A
5:00 PM79 °FScattered clouds.8 mph58%29.90 "HgN/A
4:00 PM82 °FScattered clouds.13 mph51%29.88 "HgN/A
3:00 PM84 °FScattered clouds.14 mph48%29.88 "HgN/A
2:00 PM82 °FScattered clouds.12 mph55%29.89 "HgN/A
1:00 PM84 °FScattered clouds.15 mph51%29.90 "HgN/A
12:00 PM81 °FPartly sunny.12 mph58%29.92 "HgN/A
11:00 AM84 °FScattered clouds.14 mph51%29.92 "HgN/A
10:00 AM82 °FScattered clouds.14 mph55%29.92 "HgN/A
9:00 AM81 °FScattered clouds.8 mph58%29.93 "HgN/A
8:00 AM77 °FScattered clouds.12 mph65%29.92 "HgN/A
7:00 AM77 °FScattered clouds.6 mph65%29.92 "HgN/A
6:00 AM73 °FPassing clouds.13 mph74%29.92 "HgN/A
5:00 AM73 °FPassing clouds.15 mph74%29.91 "HgN/A
4:00 AM73 °FClear.16 mph74%29.90 "Hg10 mi
3:00 AM73 °FClear.12 mph74%29.88 "Hg10 mi
2:00 AM75 °FClear.12 mph69%29.89 "Hg10 mi
1:00 AM73 °FClear.18 mph74%29.91 "Hg10 mi
12:00 AM73 °FPassing clouds.12 mph74%29.93 "HgN/A
Weather by CustomWeather, © 2015

See weather overviewHow to use our weather pages